This is the latest recevied weather packets stored in our database for station/object PU5BHV. If no packets are shown the sender has not sent any weather packets the latest 10 day(s).
| Time | Temp. | Humidity | Pressure | Rain* | Wind** | Luminosity | Snow |
|---|---|---|---|---|---|---|---|
| 1778153133 | 23.33° C | 93% | 1014.6 hPa | 0 mm | - | 141 W/m² | - |
| 1778152829 | 23.33° C | 93% | 1014.6 hPa | 0 mm | - | 75 W/m² | - |
| 1778152527 | 23.33° C | 93% | 1014.3 hPa | 0 mm | - | 109 W/m² | - |
| 1778152223 | 23.33° C | 94% | 1014.5 hPa | 0 mm | - | 74 W/m² | - |
| 1778151920 | 23.33° C | 94% | 1014.4 hPa | 0 mm | - | 68 W/m² | - |
| 1778151616 | 22.78° C | 96% | 1014.2 hPa | 0 mm | - | 98 W/m² | - |
| 1778151313 | 22.78° C | 97% | 1014.3 hPa | 0 mm | - | 76 W/m² | - |
| 1778151009 | 22.78° C | 98% | 1014.7 hPa | 0 mm | - | 54 W/m² | - |
| 1778150707 | 22.22° C | 99% | 1014.2 hPa | 0 mm | - | 51 W/m² | - |
| 1778150402 | 22.22° C | 99% | 1014.4 hPa | 0 mm | - | 62 W/m² | - |
| 1778150099 | 22.22° C | 99% | 1014.3 hPa | 0 mm | - | 53 W/m² | - |
| 1778149795 | 22.22° C | 99% | 1014.4 hPa | 0 mm | - | 50 W/m² | - |
| 1778149492 | 22.22° C | 99% | 1014.4 hPa | 0 mm | - | 45 W/m² | - |
| 1778149189 | 22.22° C | 99% | 1014.4 hPa | 0 mm | - | 43 W/m² | - |
| 1778148884 | 22.22° C | 99% | 1014.4 hPa | 0 mm | - | 27 W/m² | - |
| 1778148580 | 22.22° C | 99% | 1014.4 hPa | 0 mm | - | 21 W/m² | - |
| 1778148278 | 22.22° C | 99% | 1014.2 hPa | 0 mm | - | 15 W/m² | - |
| 1778147976 | 22.22° C | 99% | 1014.4 hPa | 0 mm | - | 8 W/m² | - |
| 1778147673 | 22.22° C | 99% | 1014.1 hPa | 0 mm | - | 5 W/m² | - |
| 1778147370 | 22.22° C | 99% | 1014.1 hPa | 0 mm | - | 2 W/m² | - |
| 1778147066 | 22.22° C | 99% | 1014 hPa | 0 mm | - | 0 W/m² | - |
| 1778146764 | 22.22° C | 99% | 1013.9 hPa | 0 mm | - | 0 W/m² | - |
| 1778146461 | 22.22° C | 99% | 1014.1 hPa | 0 mm | - | 0 W/m² | - |
| 1778146160 | 22.22° C | 99% | 1014.1 hPa | 0 mm | - | 0 W/m² | - |
| 1778145855 | 22.22° C | 99% | 1014 hPa | 0 mm | - | 0 W/m² | - |
* Rain latest hour (hover to see other rain measurements)
** Current wind speed in m/s (hover to see current wind gust speed)